Previsão horária em Abbotsford

Hoje, 17 Abril, Sábado

Tempo Temperatura Precipitação Vento Pressão Humidade
00:00 +13°C° 0 mm 1 m/s 758 mmHg 70%
01:00 +13°C° 0 mm 1 m/s 758 mmHg 70%
02:00 +13°C° 0 mm 1 m/s 758 mmHg 70%
03:00 +13°C° 0 mm 1 m/s 758 mmHg 69%
04:00 +12°C° 0 mm 1 m/s 759 mmHg 69%
05:00 +13°C° 0 mm 1 m/s 759 mmHg 66%
06:00 +14°C° 0 mm 1 m/s 759 mmHg 64%
07:00 +15°C° 0 mm 1 m/s 759 mmHg 61%
08:00 +19°C° 0 mm 1 m/s 759 mmHg 55%
09:00 +21°C° 0 mm 1 m/s 759 mmHg 48%
10:00 +24°C° 0 mm 1 m/s 759 mmHg 42%
11:00 +24°C° 0 mm 1 m/s 758 mmHg 40%
12:00 +25°C° 0 mm 1 m/s 758 mmHg 39%
13:00 +26°C° 0 mm 2 m/s 758 mmHg 38%
14:00 +25°C° 0 mm 2 m/s 758 mmHg 39%
15:00 +25°C° 0 mm 2 m/s 758 mmHg 41%
16:00 +25°C° 0 mm 2 m/s 757 mmHg 42%
17:00 +22°C° 0 mm 1 m/s 757 mmHg 52%
18:00 +20°C° 0 mm 1 m/s 757 mmHg 63%
19:00 +15°C° 0 mm 0 m/s 757 mmHg 73%
20:00 +16°C° 0 mm 1 m/s 757 mmHg 74%
21:00 +15°C° 0 mm 1 m/s 758 mmHg 75%
22:00 +14°C° 0 mm 1 m/s 758 mmHg 76%
23:00 +14°C° 0 mm 1 m/s 758 mmHg 76%

Amanhã, 18 Abril, Domingo

Tempo Temperatura Precipitação Vento Pressão Humidade
00:00 +13°C° 0 mm 1 m/s 758 mmHg 76%
01:00 +13°C° 0 mm 1 m/s 758 mmHg 76%
02:00 +13°C° 0 mm 1 m/s 758 mmHg 75%
03:00 +13°C° 0 mm 1 m/s 758 mmHg 74%
04:00 +13°C° 0 mm 1 m/s 758 mmHg 73%
05:00 +14°C° 0 mm 1 m/s 758 mmHg 70%
06:00 +14°C° 0 mm 0 m/s 758 mmHg 67%
07:00 +15°C° 0 mm 0 m/s 758 mmHg 65%
08:00 +16°C° 0 mm 0 m/s 758 mmHg 58%
09:00 +20°C° 0 mm 1 m/s 758 mmHg 52%
10:00 +22°C° 0 mm 1 m/s 757 mmHg 46%
11:00 +23°C° 0 mm 1 m/s 757 mmHg 44%
12:00 +24°C° 0 mm 2 m/s 757 mmHg 42%
13:00 +25°C° 0 mm 2 m/s 757 mmHg 40%
14:00 +24°C° 0 mm 2 m/s 757 mmHg 41%
15:00 +24°C° 0 mm 2 m/s 756 mmHg 43%
16:00 +24°C° 0 mm 1 m/s 756 mmHg 44%
17:00 +22°C° 0 mm 1 m/s 756 mmHg 53%
18:00 +20°C° 0 mm 1 m/s 756 mmHg 62%
19:00 +18°C° 0 mm 1 m/s 756 mmHg 71%
20:00 +16°C° 0 mm 1 m/s 757 mmHg 72%
21:00 +15°C° 0 mm 2 m/s 757 mmHg 72%
22:00 +14°C° 0 mm 2 m/s 758 mmHg 73%
23:00 +13°C° 0 mm 3 m/s 758 mmHg 71%

Depois de amanhã, 19 Abril, Segunda-feira

Tempo Temperatura Precipitação Vento Pressão Humidade
00:00 +12°C° 0 mm 3 m/s 758 mmHg 70%
01:00 +11°C° 0 mm 3 m/s 759 mmHg 68%
02:00 +12°C° 0 mm 2 m/s 759 mmHg 68%
03:00 +10°C° 0 mm 2 m/s 759 mmHg 67%
04:00 +10°C° 0 mm 2 m/s 759 mmHg 66%
05:00 +12°C° 0 mm 2 m/s 759 mmHg 63%
06:00 +13°C° 0 mm 1 m/s 759 mmHg 59%
07:00 +14°C° 0 mm 1 m/s 760 mmHg 56%
08:00 +16°C° 0 mm 1 m/s 759 mmHg 49%
09:00 +19°C° 0 mm 1 m/s 759 mmHg 43%
10:00 +21°C° 0 mm 1 m/s 759 mmHg 36%
11:00 +22°C° 0 mm 1 m/s 759 mmHg 36%
12:00 +21°C° 0 mm 2 m/s 759 mmHg 37%
13:00 +23°C° 0 mm 2 m/s 758 mmHg 37%
14:00 +21°C° 0 mm 2 m/s 758 mmHg 39%
15:00 +21°C° 0 mm 2 m/s 758 mmHg 42%
16:00 +21°C° 0 mm 2 m/s 757 mmHg 45%
17:00 +20°C° 0 mm 1 m/s 757 mmHg 54%
18:00 +18°C° 0 mm 1 m/s 757 mmHg 63%
19:00 +14°C° 0 mm 0 m/s 757 mmHg 72%
20:00 +13°C° 0 mm 0 m/s 757 mmHg 74%
21:00 +12°C° 0 mm 0 m/s 757 mmHg 76%
22:00 +12°C° 0 mm 0 m/s 757 mmHg 77%
23:00 +12°C° 0 mm 1 m/s 757 mmHg 79%

20 Abril, Terça-feira

Tempo Temperatura Precipitação Vento Pressão Humidade
00:00 +12°C° 0 mm 1 m/s 757 mmHg 80%
01:00 +11°C° 0 mm 1 m/s 756 mmHg 81%
02:00 +11°C° 0 mm 1 m/s 756 mmHg 81%
03:00 +11°C° 0 mm 1 m/s 756 mmHg 81%
04:00 +11°C° 0 mm 1 m/s 757 mmHg 81%
05:00 +11°C° 0 mm 0 m/s 756 mmHg 78%
06:00 +12°C° 0 mm 0 m/s 756 mmHg 75%
07:00 +13°C° 0 mm 0 m/s 756 mmHg 71%
08:00 +15°C° 0 mm 1 m/s 756 mmHg 66%
09:00 +18°C° 0 mm 1 m/s 756 mmHg 60%
10:00 +19°C° 0 mm 1 m/s 755 mmHg 55%
11:00 +19°C° 0 mm 2 m/s 755 mmHg 52%
12:00 +20°C° 0 mm 2 m/s 755 mmHg 50%
13:00 +21°C° 0 mm 2 m/s 754 mmHg 48%
14:00 +20°C° 0 mm 2 m/s 754 mmHg 49%
15:00 +20°C° 0 mm 2 m/s 754 mmHg 49%
16:00 +20°C° 0 mm 2 m/s 753 mmHg 50%
17:00 +18°C° 0 mm 2 m/s 753 mmHg 60%
18:00 +16°C° 0 mm 1 m/s 753 mmHg 69%
19:00 +14°C° 0 mm 1 m/s 753 mmHg 79%
20:00 +13°C° 0 mm 1 m/s 753 mmHg 80%
21:00 +12°C° 0 mm 1 m/s 753 mmHg 82%
22:00 +12°C° 0 mm 1 m/s 753 mmHg 83%
23:00 +11°C° 0 mm 1 m/s 753 mmHg 84%

21 Abril, Quarta-feira

Tempo Temperatura Precipitação Vento Pressão Humidade
00:00 +11°C° 0 mm 1 m/s 753 mmHg 85%
01:00 +11°C° 0 mm 1 m/s 753 mmHg 86%
02:00 +9°C° 0 mm 0 m/s 753 mmHg 88%
03:00 +9°C° 0 mm 0 m/s 754 mmHg 91%
04:00 +8°C° 0 mm 0 m/s 754 mmHg 93%
05:00 +9°C° 0 mm 0 m/s 754 mmHg 88%
06:00 +10°C° 0 mm 0 m/s 754 mmHg 84%
07:00 +11°C° 0 mm 0 m/s 754 mmHg 79%
08:00 +14°C° 0 mm 1 m/s 754 mmHg 74%
09:00 +15°C° 0 mm 1 m/s 754 mmHg 69%
10:00 +17°C° 0 mm 2 m/s 754 mmHg 63%
11:00 +17°C° 0 mm 2 m/s 754 mmHg 61%
12:00 +18°C° 0 mm 2 m/s 754 mmHg 58%
13:00 +19°C° 0 mm 2 m/s 754 mmHg 56%
14:00 +19°C° 0 mm 2 m/s 753 mmHg 56%
15:00 +19°C° 0 mm 2 m/s 753 mmHg 56%
16:00 +19°C° 0 mm 2 m/s 753 mmHg 56%
17:00 +18°C° 0 mm 1 m/s 753 mmHg 65%
18:00 +15°C° 0 mm 1 m/s 753 mmHg 74%
19:00 +13°C° 0 mm 1 m/s 753 mmHg 83%
20:00 +12°C° 0 mm 0 m/s 754 mmHg 83%
21:00 +12°C° 0 mm 0 m/s 754 mmHg 83%
22:00 +12°C° 0 mm 0 m/s 754 mmHg 83%
23:00 +13°C° 0 mm 1 m/s 754 mmHg 82%

22 Abril, Quinta-feira

Tempo Temperatura Precipitação Vento Pressão Humidade
00:00 +13°C° 0 mm 1 m/s 754 mmHg 82%
01:00 +13°C° 0 mm 1 m/s 754 mmHg 81%
02:00 +12°C° 0 mm 1 m/s 754 mmHg 83%
03:00 +12°C° 0 mm 1 m/s 754 mmHg 85%
04:00 +11°C° 0 mm 1 m/s 754 mmHg 86%
05:00 +11°C° 0 mm 1 m/s 754 mmHg 85%
06:00 +12°C° 0 mm 1 m/s 754 mmHg 84%
07:00 +12°C° 0 mm 1 m/s 754 mmHg 83%
08:00 +12°C° 0 mm 1 m/s 754 mmHg 81%
09:00 +13°C° 0 mm 1 m/s 754 mmHg 79%
10:00 +13°C° 0 mm 2 m/s 755 mmHg 77%
11:00 +14°C° 0 mm 2 m/s 754 mmHg 73%
12:00 +14°C° 0 mm 2 m/s 754 mmHg 69%
13:00 +15°C° 0 mm 2 m/s 754 mmHg 66%
14:00 +14°C° 0 mm 2 m/s 754 mmHg 65%
15:00 +14°C° 0 mm 1 m/s 754 mmHg 65%
16:00 +14°C° 0 mm 1 m/s 754 mmHg 65%
17:00 +13°C° 0.1 mm 1 m/s 754 mmHg 70%
18:00 +12°C° 0.1 mm 1 m/s 754 mmHg 76%
19:00 +10°C° 0.1 mm 0 m/s 754 mmHg 82%
20:00 +10°C° 0.1 mm 0 m/s 754 mmHg 82%
21:00 +11°C° 0.1 mm 1 m/s 754 mmHg 83%
22:00 +10°C° 0.1 mm 1 m/s 753 mmHg 84%
23:00 +10°C° 0.1 mm 1 m/s 753 mmHg 86%
Mostrar mais